Time,TemperatureF,DewpointF,PressureIn,WindDirection,WindDirectionDegrees,WindSpeedMPH,WindSpeedGustMPH,Humidity,HourlyPrecipIn,Conditions,Clouds,dailyrainin,SoftwareType,DateUTC
2013-05-09 00:01:00,59.0,57.6,30.08,SW,229,0.0,1.0,95,0.00,,---,0.00,VWS V14.01,2013-05-09 04:01:00,
2013-05-09 00:06:00,59.0,57.6,30.08,SW,229,0.0,1.0,95,0.00,,---,0.00,VWS V14.01,2013-05-09 04:06:00,
2013-05-09 00:11:00,59.0,57.6,30.07,SW,229,0.0,1.0,95,0.00,,---,0.00,VWS V14.01,2013-05-09 04:11:00,
2013-05-09 00:16:00,59.0,57.6,30.07,SW,229,1.0,1.0,95,0.00,,---,0.00,VWS V14.01,2013-05-09 04:16:00,
2013-05-09 00:21:00,58.9,57.5,30.08,SW,229,1.0,1.0,95,0.00,,---,0.00,VWS V14.01,2013-05-09 04:21:00,
2013-05-09 00:26:00,58.8,57.4,30.07,SW,229,0.0,1.0,95,0.00,,---,0.00,VWS V14.01,2013-05-09 04:26:00,
2013-05-09 00:31:00,58.7,57.6,30.07,SW,229,0.0,1.0,96,0.00,,---,0.00,VWS V14.01,2013-05-09 04:31:00,
2013-05-09 00:36:00,58.7,57.6,30.07,SW,229,0.0,1.0,96,0.00,,---,0.00,VWS V14.01,2013-05-09 04:36:00,
2013-05-09 00:41:00,58.6,57.5,30.07,SW,229,0.0,0.0,96,0.00,,---,0.00,VWS V14.01,2013-05-09 04:41:00,
2013-05-09 00:46:00,58.4,57.3,30.07,SW,229,0.0,0.0,96,0.00,,---,0.00,VWS V14.01,2013-05-09 04:46:00,
2013-05-09 00:51:00,58.3,56.9,30.07,SW,229,0.0,0.0,95,0.00,,---,0.00,VWS V14.01,2013-05-09 04:51:00,
2013-05-09 00:55:00,58.0,56.6,30.07,SW,229,0.0,0.0,95,0.00,,---,0.00,VWS V14.01,2013-05-09 04:55:00,
2013-05-09 01:00:00,57.9,56.5,30.07,SW,229,0.0,0.0,95,0.00,,---,0.00,VWS V14.01,2013-05-09 05:00:00,
2013-05-09 01:05:00,57.7,56.3,30.07,SW,229,0.0,0.0,95,0.00,,---,0.00,VWS V14.01,2013-05-09 05:05:00,
2013-05-09 01:10:00,57.6,56.2,30.07,SW,229,0.0,0.0,95,0.00,,---,0.00,VWS V14.01,2013-05-09 05:10:00,
2013-05-09 01:15:00,57.5,56.1,30.07,SW,229,0.0,0.0,95,0.00,,---,0.00,VWS V14.01,2013-05-09 05:15:00,
2013-05-09 01:20:00,57.5,56.4,30.07,SW,229,0.0,0.0,96,0.00,,---,0.00,VWS V14.01,2013-05-09 05:20:00,
2013-05-09 01:25:00,57.4,56.0,30.07,SW,229,0.0,0.0,95,0.00,,---,0.00,VWS V14.01,2013-05-09 05:25:00,
2013-05-09 01:30:00,57.3,55.9,30.07,SW,229,0.0,0.0,95,0.00,,---,0.00,VWS V14.01,2013-05-09 05:30:00,
2013-05-09 01:35:00,57.1,56.0,30.07,SW,229,0.0,0.0,96,0.00,,---,0.00,VWS V14.01,2013-05-09 05:35:00,
2013-05-09 01:40:00,57.2,56.1,30.07,SW,229,1.0,1.0,96,0.00,,---,0.00,VWS V14.01,2013-05-09 05:40:00,
2013-05-09 01:45:00,57.3,56.2,30.06,SW,229,0.0,1.0,96,0.00,,---,0.00,VWS V14.01,2013-05-09 05:45:00,
2013-05-09 01:50:00,57.3,56.2,30.06,SW,229,1.0,1.0,96,0.00,,---,0.00,VWS V14.01,2013-05-09 05:50:00,
2013-05-09 01:55:00,57.3,56.2,30.06,SW,229,1.0,1.0,96,0.00,,---,0.00,VWS V14.01,2013-05-09 05:55:00,
2013-05-09 02:00:00,57.3,56.2,30.06,SW,229,0.0,1.0,96,0.00,,---,0.00,VWS V14.01,2013-05-09 06:00:00,
2013-05-09 02:05:00,57.3,56.2,30.06,SW,229,0.0,1.0,96,0.00,,---,0.00,VWS V14.01,2013-05-09 06:05:00,
2013-05-09 02:10:00,57.3,56.2,30.06,SW,229,0.0,0.0,96,0.00,,---,0.00,VWS V14.01,2013-05-09 06:10:00,
2013-05-09 02:15:00,57.2,56.1,30.06,SW,229,0.0,1.0,96,0.00,,---,0.00,VWS V14.01,2013-05-09 06:15:00,
2013-05-09 02:20:00,57.1,56.0,30.06,SW,229,0.0,1.0,96,0.00,,---,0.00,VWS V14.01,2013-05-09 06:20:00,
2013-05-09 02:25:00,57.0,55.9,30.06,SW,229,0.0,1.0,96,0.00,,---,0.00,VWS V14.01,2013-05-09 06:25:00,
2013-05-09 02:30:00,56.9,55.8,30.06,SW,229,0.0,1.0,96,0.00,,---,0.00,VWS V14.01,2013-05-09 06:30:00,
2013-05-09 02:35:00,56.8,55.7,30.06,SW,229,0.0,1.0,96,0.00,,---,0.00,VWS V14.01,2013-05-09 06:35:00,
2013-05-09 02:40:00,56.8,55.7,30.06,SW,229,0.0,1.0,96,0.00,,---,0.00,VWS V14.01,2013-05-09 06:40:00,
2013-05-09 02:45:00,56.5,55.4,30.06,SW,229,0.0,1.0,96,0.00,,---,0.00,VWS V14.01,2013-05-09 06:45:00,
2013-05-09 02:50:00,56.3,55.2,30.06,SW,229,0.0,1.0,96,0.00,,---,0.00,VWS V14.01,2013-05-09 06:50:00,
2013-05-09 02:55:00,56.2,55.1,30.05,SW,229,0.0,1.0,96,0.00,,---,0.00,VWS V14.01,2013-05-09 06:55:00,
2013-05-09 03:00:00,56.2,55.1,30.06,SW,229,0.0,1.0,96,0.00,,---,0.00,VWS V14.01,2013-05-09 07:00:00,
2013-05-09 03:05:00,56.2,55.1,30.06,SW,229,0.0,1.0,96,0.00,,---,0.00,VWS V14.01,2013-05-09 07:05:00,
2013-05-09 03:10:00,56.1,55.0,30.05,SW,229,1.0,1.0,96,0.00,,---,0.00,VWS V14.01,2013-05-09 07:10:00,
2013-05-09 03:15:00,56.0,54.9,30.06,SW,229,1.0,1.0,96,0.00,,---,0.00,VWS V14.01,2013-05-09 07:15:00,
2013-05-09 03:20:00,56.0,54.9,30.06,SW,229,1.0,1.0,96,0.00,,---,0.00,VWS V14.01,2013-05-09 07:20:00,
2013-05-09 03:25:00,55.9,54.8,30.06,SW,229,0.0,1.0,96,0.00,,---,0.00,VWS V14.01,2013-05-09 07:25:00,
2013-05-09 03:30:00,55.9,54.8,30.06,SW,229,0.0,1.0,96,0.00,,---,0.00,VWS V14.01,2013-05-09 07:30:00,
2013-05-09 03:35:00,55.8,54.7,30.06,SW,229,0.0,1.0,96,0.00,,---,0.00,VWS V14.01,2013-05-09 07:35:00,
2013-05-09 03:40:00,55.7,54.6,30.07,SW,229,0.0,0.0,96,0.00,,---,0.00,VWS V14.01,2013-05-09 07:40:00,
2013-05-09 03:45:00,55.5,54.4,30.07,SW,229,0.0,1.0,96,0.00,,---,0.00,VWS V14.01,2013-05-09 07:45:00,
2013-05-09 03:50:00,55.3,54.2,30.08,SW,229,0.0,1.0,96,0.00,,---,0.00,VWS V14.01,2013-05-09 07:50:00,
2013-05-09 03:55:00,55.2,54.1,30.08,SW,229,0.0,1.0,96,0.00,,---,0.00,VWS V14.01,2013-05-09 07:55:00,
2013-05-09 04:00:00,55.1,54.0,30.08,SW,229,0.0,1.0,96,0.00,,---,0.00,VWS V14.01,2013-05-09 08:00:00,
2013-05-09 04:05:00,55.1,54.0,30.08,SW,229,0.0,1.0,96,0.00,,---,0.00,VWS V14.01,2013-05-09 08:05:00,
2013-05-09 04:10:00,55.0,53.9,30.08,SW,229,1.0,1.0,96,0.00,,---,0.00,VWS V14.01,2013-05-09 08:10:00,
2013-05-09 04:15:00,55.0,53.9,30.08,SW,229,0.0,1.0,96,0.00,,---,0.00,VWS V14.01,2013-05-09 08:15:00,
2013-05-09 04:20:00,55.0,53.9,30.08,SW,229,0.0,1.0,96,0.00,,---,0.00,VWS V14.01,2013-05-09 08:20:00,
2013-05-09 04:25:00,55.1,54.0,30.08,SW,229,0.0,1.0,96,0.00,,---,0.00,VWS V14.01,2013-05-09 08:25:00,
2013-05-09 04:30:00,55.1,54.0,30.08,SW,229,0.0,1.0,96,0.00,,---,0.00,VWS V14.01,2013-05-09 08:30:00,
2013-05-09 04:35:00,55.2,54.1,30.08,SW,229,0.0,1.0,96,0.00,,---,0.00,VWS V14.01,2013-05-09 08:35:00,
2013-05-09 04:40:00,55.3,54.2,30.08,SW,229,0.0,0.0,96,0.00,,---,0.00,VWS V14.01,2013-05-09 08:40:00,
2013-05-09 04:45:00,55.4,54.3,30.08,SW,229,0.0,0.0,96,0.00,,---,0.00,VWS V14.01,2013-05-09 08:45:00,
2013-05-09 04:50:00,55.5,54.4,30.08,SW,229,0.0,0.0,96,0.00,,---,0.00,VWS V14.01,2013-05-09 08:50:00,
2013-05-09 04:55:00,55.6,54.8,30.09,SW,229,0.0,0.0,97,0.00,,---,0.00,VWS V14.01,2013-05-09 08:55:00,
2013-05-09 05:00:00,55.7,54.9,30.09,SW,229,1.0,1.0,97,0.00,,---,0.00,VWS V14.01,2013-05-09 09:00:00,
2013-05-09 05:05:00,55.8,55.0,30.09,SW,229,0.0,1.0,97,0.00,,---,0.00,VWS V14.01,2013-05-09 09:05:00,
2013-05-09 05:10:00,55.8,55.0,30.09,SW,229,0.0,0.0,97,0.00,,---,0.00,VWS V14.01,2013-05-09 09:10:00,
2013-05-09 05:15:00,55.8,55.0,30.09,SW,229,0.0,0.0,97,0.00,,---,0.00,VWS V14.01,2013-05-09 09:15:00,
2013-05-09 05:20:00,55.9,55.1,30.09,SW,229,1.0,1.0,97,0.00,,---,0.00,VWS V14.01,2013-05-09 09:20:00,
2013-05-09 05:25:00,56.0,55.2,30.09,SW,229,0.0,1.0,97,0.00,,---,0.00,VWS V14.01,2013-05-09 09:25:00,
2013-05-09 05:30:00,56.0,55.2,30.09,SW,229,0.0,1.0,97,0.00,,---,0.00,VWS V14.01,2013-05-09 09:30:00,
2013-05-09 05:35:00,55.9,54.8,30.09,SW,229,0.0,1.0,96,0.00,,---,0.00,VWS V14.01,2013-05-09 09:35:00,
2013-05-09 05:40:00,55.8,55.0,30.09,SW,229,0.0,1.0,97,0.00,,---,0.00,VWS V14.01,2013-05-09 09:40:00,
2013-05-09 05:45:00,55.6,54.8,30.09,SW,229,0.0,1.0,97,0.00,,---,0.00,VWS V14.01,2013-05-09 09:45:00,
2013-05-09 05:50:00,55.5,54.7,30.09,SW,229,0.0,1.0,97,0.00,,---,0.00,VWS V14.01,2013-05-09 09:50:00,
2013-05-09 05:55:00,55.4,54.3,30.09,SW,229,0.0,1.0,96,0.00,,---,0.00,VWS V14.01,2013-05-09 09:55:00,
2013-05-09 06:00:00,55.2,54.1,30.09,SW,229,0.0,1.0,96,0.00,,---,0.00,VWS V14.01,2013-05-09 10:00:00,
2013-05-09 06:05:00,55.1,54.0,30.09,SW,229,0.0,1.0,96,0.00,,---,0.00,VWS V14.01,2013-05-09 10:05:00,
2013-05-09 06:10:00,54.9,53.8,30.09,SW,229,0.0,0.0,96,0.00,,---,0.00,VWS V14.01,2013-05-09 10:10:00,
2013-05-09 06:15:00,54.7,53.6,30.09,SW,229,1.0,1.0,96,0.00,,---,0.00,VWS V14.01,2013-05-09 10:15:00,
2013-05-09 06:20:00,54.6,53.5,30.09,SW,229,0.0,1.0,96,0.00,,---,0.00,VWS V14.01,2013-05-09 10:20:00,
2013-05-09 06:25:00,54.5,53.4,30.09,SW,229,0.0,1.0,96,0.00,,---,0.00,VWS V14.01,2013-05-09 10:25:00,
2013-05-09 06:30:00,54.4,53.3,30.09,SW,229,0.0,1.0,96,0.00,,---,0.00,VWS V14.01,2013-05-09 10:30:00,
2013-05-09 06:35:00,54.2,53.1,30.09,SW,229,0.0,1.0,96,0.00,,---,0.00,VWS V14.01,2013-05-09 10:35:00,
2013-05-09 06:40:00,54.2,53.4,30.10,SW,229,0.0,0.0,97,0.00,,---,0.00,VWS V14.01,2013-05-09 10:40:00,
2013-05-09 06:45:00,54.3,53.5,30.10,SW,229,0.0,1.0,97,0.00,,---,0.00,VWS V14.01,2013-05-09 10:45:00,
2013-05-09 06:50:00,54.4,53.6,30.10,SW,229,0.0,1.0,97,0.00,,---,0.00,VWS V14.01,2013-05-09 10:50:00,
2013-05-09 06:55:00,54.4,53.6,30.10,SW,229,0.0,1.0,97,0.00,,---,0.00,VWS V14.01,2013-05-09 10:55:00,
2013-05-09 06:59:00,54.4,53.6,30.11,SW,229,0.0,1.0,97,0.00,,---,0.00,VWS V14.01,2013-05-09 10:59:00,
2013-05-09 07:04:00,54.5,53.7,30.11,SW,229,0.0,1.0,97,0.00,,---,0.00,VWS V14.01,2013-05-09 11:04:00,
2013-05-09 07:09:00,54.6,53.8,30.11,SW,229,0.0,0.0,97,0.00,,---,0.00,VWS V14.01,2013-05-09 11:09:00,
2013-05-09 07:14:00,54.8,54.0,30.11,SW,229,0.0,0.0,97,0.00,,---,0.00,VWS V14.01,2013-05-09 11:14:00,
2013-05-09 07:19:00,54.9,54.1,30.11,SW,229,0.0,0.0,97,0.00,,---,0.00,VWS V14.01,2013-05-09 11:19:00,
2013-05-09 07:24:00,55.2,54.4,30.12,SW,229,0.0,0.0,97,0.00,,---,0.00,VWS V14.01,2013-05-09 11:24:00,
2013-05-09 07:29:00,55.4,54.6,30.12,North,360,0.0,0.0,97,0.00,,---,0.00,VWS V14.01,2013-05-09 11:29:00,
2013-05-09 07:34:00,55.9,55.1,30.12,North,5,0.0,0.0,97,0.00,,---,0.00,VWS V14.01,2013-05-09 11:34:00,
2013-05-09 07:39:00,56.4,55.6,30.12,North,5,0.0,0.0,97,0.00,,---,0.00,VWS V14.01,2013-05-09 11:39:00,
2013-05-09 07:44:00,56.9,56.1,30.12,North,5,0.0,0.0,97,0.00,,---,0.00,VWS V14.01,2013-05-09 11:44:00,
2013-05-09 07:49:00,57.1,56.3,30.12,WNW,290,0.0,0.0,97,0.00,,---,0.00,VWS V14.01,2013-05-09 11:49:00,
2013-05-09 07:54:00,57.4,56.6,30.12,WNW,290,0.0,1.0,97,0.00,,---,0.00,VWS V14.01,2013-05-09 11:54:00,
2013-05-09 07:59:00,57.7,56.9,30.12,WNW,290,0.0,1.0,97,0.00,,---,0.00,VWS V14.01,2013-05-09 11:59:00,
2013-05-09 08:04:00,58.0,57.2,30.12,WNW,290,0.0,1.0,97,0.00,,---,0.00,VWS V14.01,2013-05-09 12:04:00,
2013-05-09 08:09:00,58.5,57.7,30.12,WNW,290,0.0,1.0,97,0.00,,---,0.00,VWS V14.01,2013-05-09 12:09:00,
2013-05-09 08:14:00,59.0,58.2,30.12,WNW,290,0.0,1.0,97,0.00,,---,0.00,VWS V14.01,2013-05-09 12:14:00,
2013-05-09 08:19:00,59.5,58.7,30.12,WNW,290,0.0,1.0,97,0.00,,---,0.00,VWS V14.01,2013-05-09 12:19:00,
2013-05-09 08:24:00,59.9,59.0,30.13,WNW,290,0.0,1.0,97,0.00,,---,0.00,VWS V14.01,2013-05-09 12:24:00,
2013-05-09 08:29:00,60.2,59.3,30.13,WNW,290,0.0,1.0,97,0.00,,---,0.00,VWS V14.01,2013-05-09 12:29:00,
2013-05-09 08:34:00,60.6,59.8,30.13,WNW,290,0.0,1.0,97,0.00,,---,0.00,VWS V14.01,2013-05-09 12:34:00,
2013-05-09 08:39:00,60.4,59.5,30.13,WNW,290,1.0,2.0,97,0.00,,---,0.00,VWS V14.01,2013-05-09 12:39:00,
2013-05-09 08:44:00,60.7,59.8,30.13,NNW,328,1.0,2.0,97,0.00,,---,0.00,VWS V14.01,2013-05-09 12:44:00,
2013-05-09 08:49:00,61.2,60.3,30.13,NNW,328,0.0,2.0,97,0.00,,---,0.00,VWS V14.01,2013-05-09 12:49:00,
2013-05-09 08:54:00,61.5,60.6,30.12,NNW,327,0.0,2.0,97,0.00,,---,0.00,VWS V14.01,2013-05-09 12:54:00,
2013-05-09 08:59:00,62.3,61.4,30.13,NNW,327,1.0,2.0,97,0.00,,---,0.00,VWS V14.01,2013-05-09 12:59:00,
2013-05-09 09:04:00,63.5,62.3,30.12,WNW,301,0.0,2.0,96,0.00,,---,0.00,VWS V14.01,2013-05-09 13:04:00,
2013-05-09 09:09:00,64.4,62.6,30.13,WNW,301,0.0,1.0,94,0.00,,---,0.00,VWS V14.01,2013-05-09 13:09:00,
2013-05-09 09:14:00,65.6,63.2,30.13,WNW,301,1.0,1.0,92,0.00,,---,0.00,VWS V14.01,2013-05-09 13:14:00,
2013-05-09 09:19:00,66.2,63.2,30.13,WNW,301,0.0,1.0,90,0.00,,---,0.00,VWS V14.01,2013-05-09 13:19:00,
2013-05-09 09:24:00,67.2,63.2,30.13,ENE,60,0.0,3.0,87,0.00,,---,0.00,VWS V14.01,2013-05-09 13:24:00,
2013-05-09 09:29:00,67.7,62.4,30.13,East,82,0.0,3.0,83,0.00,,---,0.00,VWS V14.01,2013-05-09 13:29:00,
2013-05-09 09:34:00,67.4,62.7,30.13,East,96,1.0,3.0,85,0.00,,---,0.00,VWS V14.01,2013-05-09 13:34:00,
2013-05-09 09:39:00,68.2,64.2,30.13,SW,217,1.0,2.0,87,0.00,,---,0.00,VWS V14.01,2013-05-09 13:39:00,
2013-05-09 09:44:00,69.5,64.8,30.13,West,259,0.0,3.0,85,0.00,,---,0.00,VWS V14.01,2013-05-09 13:44:00,
2013-05-09 09:49:00,69.9,63.8,30.12,SSW,209,0.0,3.0,81,0.00,,---,0.00,VWS V14.01,2013-05-09 13:49:00,
2013-05-09 09:54:00,70.6,64.5,30.13,WSW,246,0.0,3.0,81,0.00,,---,0.00,VWS V14.01,2013-05-09 13:54:00,
2013-05-09 09:59:00,71.6,64.8,30.12,WNW,302,0.0,3.0,79,0.00,,---,0.00,VWS V14.01,2013-05-09 13:59:00,
2013-05-09 10:04:00,71.6,64.0,30.12,WSW,238,1.0,3.0,77,0.00,,---,0.00,VWS V14.01,2013-05-09 14:04:00,
2013-05-09 10:09:00,72.1,65.6,30.12,WSW,238,1.0,1.0,80,0.00,,---,0.00,VWS V14.01,2013-05-09 14:09:00,
2013-05-09 10:14:00,72.7,65.4,30.13,WSW,238,1.0,3.0,78,0.00,,---,0.00,VWS V14.01,2013-05-09 14:14:00,
2013-05-09 10:19:00,73.1,64.7,30.13,WSW,238,1.0,3.0,75,0.00,,---,0.00,VWS V14.01,2013-05-09 14:19:00,
2013-05-09 10:24:00,73.5,65.5,30.13,West,261,0.0,3.0,76,0.00,,---,0.00,VWS V14.01,2013-05-09 14:24:00,
2013-05-09 10:29:00,74.0,66.0,30.13,WSW,250,0.0,3.0,76,0.00,,---,0.00,VWS V14.01,2013-05-09 14:29:00,
2013-05-09 10:34:00,75.0,66.9,30.13,WSW,250,1.0,3.0,76,0.00,,---,0.00,VWS V14.01,2013-05-09 14:34:00,
2013-05-09 10:39:00,75.4,66.2,30.13,WSW,250,2.0,3.0,73,0.00,,---,0.00,VWS V14.01,2013-05-09 14:39:00,
2013-05-09 10:44:00,75.7,66.4,30.13,WSW,250,2.0,3.0,73,0.00,,---,0.00,VWS V14.01,2013-05-09 14:44:00,
2013-05-09 10:49:00,75.3,66.1,30.13,WSW,245,2.0,3.0,73,0.00,,---,0.00,VWS V14.01,2013-05-09 14:49:00,
2013-05-09 10:54:00,74.9,66.4,30.13,South,172,2.0,5.0,75,0.00,,---,0.00,VWS V14.01,2013-05-09 14:54:00,
2013-05-09 10:59:00,75.8,67.3,30.13,South,172,1.0,5.0,75,0.00,,---,0.00,VWS V14.01,2013-05-09 14:59:00,
2013-05-09 11:04:00,76.9,66.4,30.13,WSW,246,0.0,5.0,70,0.00,,---,0.00,VWS V14.01,2013-05-09 15:04:00,
2013-05-09 11:09:00,77.0,66.1,30.12,SSE,163,1.0,3.0,69,0.00,,---,0.00,VWS V14.01,2013-05-09 15:09:00,
2013-05-09 11:14:00,76.5,66.0,30.12,SSW,207,3.0,4.0,70,0.00,,---,0.00,VWS V14.01,2013-05-09 15:14:00,
2013-05-09 11:19:00,76.6,66.1,30.12,West,267,1.0,4.0,70,0.00,,---,0.00,VWS V14.01,2013-05-09 15:19:00,
2013-05-09 11:24:00,77.0,66.5,30.12,WSW,248,0.0,4.0,70,0.00,,---,0.00,VWS V14.01,2013-05-09 15:24:00,
2013-05-09 11:29:00,77.8,66.8,30.12,SW,230,1.0,4.0,69,0.00,,---,0.00,VWS V14.01,2013-05-09 15:29:00,
2013-05-09 11:34:00,78.5,66.6,30.12,WSW,250,1.0,4.0,67,0.00,,---,0.00,VWS V14.01,2013-05-09 15:34:00,
2013-05-09 11:39:00,78.1,65.8,30.12,SE,125,1.0,2.0,66,0.00,,---,0.00,VWS V14.01,2013-05-09 15:39:00,
2013-05-09 11:44:00,77.2,66.2,30.12,WSW,237,2.0,3.0,69,0.00,,---,0.00,VWS V14.01,2013-05-09 15:44:00,
2013-05-09 11:49:00,77.4,66.9,30.12,NW,313,0.0,4.0,70,0.00,,---,0.00,VWS V14.01,2013-05-09 15:49:00,
2013-05-09 11:54:00,77.6,65.3,30.12,SSW,202,0.0,4.0,66,0.00,,---,0.00,VWS V14.01,2013-05-09 15:54:00,
2013-05-09 11:59:00,77.8,66.4,30.12,NW,309,1.0,4.0,68,0.00,,---,0.00,VWS V14.01,2013-05-09 15:59:00,
2013-05-09 12:04:00,78.5,67.1,30.12,SW,230,3.0,4.0,68,0.00,,---,0.00,VWS V14.01,2013-05-09 16:04:00,
2013-05-09 12:09:00,79.5,67.2,30.12,SW,227,4.0,5.0,66,0.00,,---,0.00,VWS V14.01,2013-05-09 16:09:00,
2013-05-09 12:14:00,80.1,67.7,30.12,SW,228,3.0,5.0,66,0.00,,---,0.00,VWS V14.01,2013-05-09 16:14:00,
2013-05-09 12:19:00,80.2,65.5,30.12,WNW,282,1.0,5.0,61,0.00,,---,0.00,VWS V14.01,2013-05-09 16:19:00,
2013-05-09 12:24:00,80.0,66.3,30.12,WSW,257,3.0,5.0,63,0.00,,---,0.00,VWS V14.01,2013-05-09 16:24:00,
2013-05-09 12:29:00,79.9,66.7,30.12,WSW,257,4.0,5.0,64,0.00,,---,0.00,VWS V14.01,2013-05-09 16:29:00,
2013-05-09 12:34:00,80.3,67.0,30.12,SW,229,1.0,6.0,64,0.00,,---,0.00,VWS V14.01,2013-05-09 16:34:00,
2013-05-09 12:39:00,81.1,66.4,30.12,SW,225,2.0,4.0,61,0.00,,---,0.00,VWS V14.01,2013-05-09 16:39:00,
2013-05-09 12:43:00,81.9,67.1,30.12,SW,224,2.0,4.0,61,0.00,,---,0.00,VWS V14.01,2013-05-09 16:43:00,
2013-05-09 12:48:00,82.0,65.3,30.12,SW,223,5.0,7.0,57,0.00,,---,0.00,VWS V14.01,2013-05-09 16:48:00,
2013-05-09 12:53:00,82.0,65.3,30.11,West,259,3.0,7.0,57,0.00,,---,0.00,VWS V14.01,2013-05-09 16:53:00,
2013-05-09 12:58:00,82.2,66.0,30.11,WSW,241,1.0,7.0,58,0.00,,---,0.00,VWS V14.01,2013-05-09 16:58:00,
2013-05-09 13:03:00,82.3,66.1,30.11,SW,232,2.0,7.0,58,0.00,,---,0.00,VWS V14.01,2013-05-09 17:03:00,
2013-05-09 13:08:00,82.9,68.1,30.11,WSW,245,2.0,3.0,61,0.00,,---,0.00,VWS V14.01,2013-05-09 17:08:00,
2013-05-09 13:13:00,83.1,65.3,30.11,WSW,244,1.0,5.0,55,0.00,,---,0.00,VWS V14.01,2013-05-09 17:13:00,
2013-05-09 13:18:00,82.8,63.4,30.11,WSW,242,1.0,5.0,52,0.00,,---,0.00,VWS V14.01,2013-05-09 17:18:00,
2013-05-09 13:23:00,82.7,62.8,30.11,NNE,25,0.0,5.0,51,0.00,,---,0.00,VWS V14.01,2013-05-09 17:23:00,
2013-05-09 13:28:00,82.8,62.8,30.11,ESE,103,1.0,5.0,51,0.00,,---,0.00,VWS V14.01,2013-05-09 17:28:00,
2013-05-09 13:33:00,83.2,66.4,30.10,West,272,2.0,5.0,57,0.00,,---,0.00,VWS V14.01,2013-05-09 17:33:00,
2013-05-09 13:38:00,83.7,64.8,30.10,West,279,4.0,5.0,53,0.00,,---,0.00,VWS V14.01,2013-05-09 17:38:00,
2013-05-09 13:43:00,83.8,63.8,30.10,WSW,238,0.0,5.0,51,0.00,,---,0.00,VWS V14.01,2013-05-09 17:43:00,
2013-05-09 13:48:00,83.6,64.7,30.10,SSW,192,2.0,5.0,53,0.00,,---,0.00,VWS V14.01,2013-05-09 17:48:00,
2013-05-09 13:53:00,82.7,63.8,30.10,SSW,192,2.0,5.0,53,0.00,,---,0.00,VWS V14.01,2013-05-09 17:53:00,
2013-05-09 13:58:00,81.4,63.2,30.10,South,186,0.0,5.0,54,0.00,,---,0.00,VWS V14.01,2013-05-09 17:58:00,
2013-05-09 14:03:00,80.6,61.4,30.10,SSE,155,1.0,5.0,52,0.00,,---,0.00,VWS V14.01,2013-05-09 18:03:00,
2013-05-09 14:08:00,80.5,63.4,30.10,SW,236,1.0,3.0,56,0.00,,---,0.00,VWS V14.01,2013-05-09 18:08:00,
2013-05-09 14:13:00,81.1,66.4,30.09,SW,225,1.0,3.0,61,0.00,,---,0.00,VWS V14.01,2013-05-09 18:13:00,
2013-05-09 14:18:00,82.0,65.8,30.09,East,80,2.0,3.0,58,0.00,,---,0.00,VWS V14.01,2013-05-09 18:18:00,
2013-05-09 14:23:00,82.5,64.2,30.09,ESE,117,4.0,4.0,54,0.00,,---,0.00,VWS V14.01,2013-05-09 18:23:00,
2013-05-09 14:28:00,81.8,61.4,30.09,SW,222,0.0,4.0,50,0.00,,---,0.00,VWS V14.01,2013-05-09 18:28:00,
2013-05-09 14:33:00,81.3,62.5,30.09,West,263,0.0,4.0,53,0.00,,---,0.00,VWS V14.01,2013-05-09 18:33:00,
2013-05-09 14:38:00,81.0,62.8,30.09,SSE,148,1.0,1.0,54,0.00,,---,0.00,VWS V14.01,2013-05-09 18:38:00,
2013-05-09 14:43:00,80.5,62.9,30.09,South,188,1.0,2.0,55,0.00,,---,0.00,VWS V14.01,2013-05-09 18:43:00,
2013-05-09 14:48:00,79.7,64.6,30.09,SSW,206,0.0,3.0,60,0.00,,---,0.00,VWS V14.01,2013-05-09 18:48:00,
2013-05-09 14:53:00,78.9,64.3,30.09,SSW,206,0.0,3.0,61,0.00,,---,0.00,VWS V14.01,2013-05-09 18:53:00,
2013-05-09 14:58:00,78.0,63.9,30.09,SSW,207,0.0,3.0,62,0.00,,---,0.00,VWS V14.01,2013-05-09 18:58:00,
2013-05-09 15:03:00,77.9,62.0,30.09,South,181,1.0,6.0,58,0.00,,---,0.00,VWS V14.01,2013-05-09 19:03:00,
2013-05-09 15:08:00,79.0,62.5,30.08,NE,42,2.0,4.0,57,0.00,,---,0.00,VWS V14.01,2013-05-09 19:08:00,
2013-05-09 15:13:00,80.3,62.2,30.08,ESE,109,1.0,4.0,54,0.00,,---,0.00,VWS V14.01,2013-05-09 19:13:00,
2013-05-09 15:18:00,80.4,62.2,30.08,SE,128,4.0,4.0,54,0.00,,---,0.00,VWS V14.01,2013-05-09 19:18:00,
2013-05-09 15:23:00,80.2,63.1,30.08,ESE,107,1.0,4.0,56,0.00,,---,0.00,VWS V14.01,2013-05-09 19:23:00,
2013-05-09 15:28:00,80.2,61.0,30.08,SE,130,1.0,4.0,52,0.00,,---,0.00,VWS V14.01,2013-05-09 19:28:00,
2013-05-09 15:33:00,79.9,62.8,30.08,SE,128,0.0,4.0,56,0.00,,---,0.00,VWS V14.01,2013-05-09 19:33:00,
2013-05-09 15:38:00,79.6,62.5,30.08,SE,128,1.0,2.0,56,0.00,,---,0.00,VWS V14.01,2013-05-09 19:38:00,
2013-05-09 15:43:00,79.5,64.9,30.08,SE,128,0.0,2.0,61,0.00,,---,0.00,VWS V14.01,2013-05-09 19:43:00,
2013-05-09 15:48:00,79.7,60.0,30.08,South,172,2.0,5.0,51,0.00,,---,0.00,VWS V14.01,2013-05-09 19:48:00,
2013-05-09 15:53:00,79.7,63.6,30.07,South,172,0.0,5.0,58,0.00,,---,0.00,VWS V14.01,2013-05-09 19:53:00,
2013-05-09 15:58:00,79.4,63.3,30.07,SSE,153,1.0,5.0,58,0.00,,---,0.00,VWS V14.01,2013-05-09 19:58:00,
2013-05-09 16:03:00,78.9,61.9,30.07,SSW,202,1.0,5.0,56,0.00,,---,0.00,VWS V14.01,2013-05-09 20:03:00,
2013-05-09 16:08:00,78.7,62.2,30.07,South,189,1.0,1.0,57,0.00,,---,0.00,VWS V14.01,2013-05-09 20:08:00,
2013-05-09 16:13:00,79.3,62.8,30.06,South,188,0.0,2.0,57,0.00,,---,0.00,VWS V14.01,2013-05-09 20:13:00,
2013-05-09 16:18:00,80.2,63.1,30.06,South,186,1.0,3.0,56,0.00,,---,0.00,VWS V14.01,2013-05-09 20:18:00,
2013-05-09 16:23:00,81.3,62.0,30.06,NE,48,1.0,4.0,52,0.00,,---,0.00,VWS V14.01,2013-05-09 20:23:00,
2013-05-09 16:28:00,82.0,62.1,30.06,WNW,302,2.0,4.0,51,0.00,,---,0.00,VWS V14.01,2013-05-09 20:28:00,
2013-05-09 16:33:00,82.4,60.8,30.05,SSE,149,1.0,5.0,48,0.00,,---,0.00,VWS V14.01,2013-05-09 20:33:00,
2013-05-09 16:38:00,82.7,63.8,30.05,ENE,69,0.0,2.0,53,0.00,,---,0.00,VWS V14.01,2013-05-09 20:38:00,
2013-05-09 16:43:00,83.0,65.2,30.05,SW,224,3.0,3.0,55,0.00,,---,0.00,VWS V14.01,2013-05-09 20:43:00,
2013-05-09 16:48:00,82.9,65.1,30.05,WSW,244,0.0,3.0,55,0.00,,---,0.00,VWS V14.01,2013-05-09 20:48:00,
2013-05-09 16:53:00,82.4,64.1,30.05,WSW,244,1.0,3.0,54,0.00,,---,0.00,VWS V14.01,2013-05-09 20:53:00,
2013-05-09 16:58:00,81.3,61.5,30.05,SSE,157,1.0,3.0,51,0.00,,---,0.00,VWS V14.01,2013-05-09 20:58:00,
2013-05-09 17:03:00,80.9,65.7,30.05,SW,215,1.0,3.0,60,0.00,,---,0.00,VWS V14.01,2013-05-09 21:03:00,
2013-05-09 17:08:00,80.7,62.5,30.04,SW,225,0.0,3.0,54,0.00,,---,0.00,VWS V14.01,2013-05-09 21:08:00,
2013-05-09 17:13:00,80.7,64.1,30.04,SW,219,1.0,3.0,57,0.00,,---,0.00,VWS V14.01,2013-05-09 21:13:00,
2013-05-09 17:18:00,80.6,63.5,30.04,SW,220,1.0,3.0,56,0.00,,---,0.00,VWS V14.01,2013-05-09 21:18:00,
2013-05-09 17:23:00,80.3,63.2,30.04,West,267,3.0,3.0,56,0.00,,---,0.00,VWS V14.01,2013-05-09 21:23:00,
2013-05-09 17:28:00,80.0,62.9,30.04,SSW,207,0.0,3.0,56,0.00,,---,0.00,VWS V14.01,2013-05-09 21:28:00,
2013-05-09 17:33:00,79.7,63.1,30.04,SSW,206,1.0,3.0,57,0.00,,---,0.00,VWS V14.01,2013-05-09 21:33:00,
2013-05-09 17:38:00,79.4,62.9,30.04,SW,234,1.0,3.0,57,0.00,,---,0.00,VWS V14.01,2013-05-09 21:38:00,
2013-05-09 17:43:00,79.1,61.0,30.04,ESE,121,1.0,3.0,54,0.00,,---,0.00,VWS V14.01,2013-05-09 21:43:00,
2013-05-09 17:48:00,78.8,60.8,30.04,East,98,3.0,3.0,54,0.00,,---,0.00,VWS V14.01,2013-05-09 21:48:00,
2013-05-09 17:53:00,78.7,60.7,30.04,North,355,0.0,3.0,54,0.00,,---,0.00,VWS V14.01,2013-05-09 21:53:00,
2013-05-09 17:58:00,78.7,62.2,30.04,WSW,238,2.0,3.0,57,0.00,,---,0.00,VWS V14.01,2013-05-09 21:58:00,
2013-05-09 18:03:00,78.7,63.7,30.04,SE,131,0.0,7.0,60,0.00,,---,0.00,VWS V14.01,2013-05-09 22:03:00,
2013-05-09 18:08:00,78.7,63.7,30.04,SE,140,2.0,4.0,60,0.00,,---,0.00,VWS V14.01,2013-05-09 22:08:00,
2013-05-09 18:13:00,78.4,63.8,30.04,WNW,287,0.0,4.0,61,0.00,,---,0.00,VWS V14.01,2013-05-09 22:13:00,
2013-05-09 18:18:00,78.4,62.9,30.04,NW,304,1.0,4.0,59,0.00,,---,0.00,VWS V14.01,2013-05-09 22:18:00,
2013-05-09 18:23:00,78.4,63.4,30.04,SE,145,1.0,4.0,60,0.00,,---,0.00,VWS V14.01,2013-05-09 22:23:00,
2013-05-09 18:28:00,78.2,62.7,30.03,SE,144,1.0,4.0,59,0.00,,---,0.00,VWS V14.01,2013-05-09 22:28:00,
2013-05-09 18:33:00,78.0,62.0,30.03,ESE,102,0.0,4.0,58,0.00,,---,0.00,VWS V14.01,2013-05-09 22:33:00,
2013-05-09 18:38:00,77.6,60.2,30.03,SSE,152,0.0,2.0,55,0.00,,---,0.00,VWS V14.01,2013-05-09 22:38:00,
2013-05-09 18:42:00,77.4,62.4,30.03,SW,223,1.0,2.0,60,0.00,,---,0.00,VWS V14.01,2013-05-09 22:42:00,
2013-05-09 18:47:00,77.1,62.6,30.03,SW,223,0.0,2.0,61,0.00,,---,0.00,VWS V14.01,2013-05-09 22:47:00,
2013-05-09 18:52:00,76.7,64.1,30.03,SW,223,0.0,2.0,65,0.00,,---,0.00,VWS V14.01,2013-05-09 22:52:00,
2013-05-09 18:57:00,76.2,63.6,30.03,SW,223,0.0,2.0,65,0.00,,---,0.00,VWS V14.01,2013-05-09 22:57:00,
2013-05-09 19:02:00,75.7,64.0,30.03,SW,223,0.0,2.0,67,0.00,,---,0.00,VWS V14.01,2013-05-09 23:02:00,
2013-05-09 19:07:00,75.2,63.9,30.03,SW,226,0.0,0.0,68,0.00,,---,0.00,VWS V14.01,2013-05-09 23:07:00,
2013-05-09 19:12:00,74.8,63.1,30.03,SW,226,0.0,0.0,67,0.00,,---,0.00,VWS V14.01,2013-05-09 23:12:00,
2013-05-09 19:17:00,74.4,63.6,30.02,SW,226,0.0,1.0,69,0.00,,---,0.00,VWS V14.01,2013-05-09 23:17:00,
2013-05-09 19:22:00,74.1,63.7,30.02,SW,226,0.0,1.0,70,0.00,,---,0.00,VWS V14.01,2013-05-09 23:22:00,
2013-05-09 19:27:00,73.6,63.6,30.02,SW,226,0.0,1.0,71,0.00,,---,0.00,VWS V14.01,2013-05-09 23:27:00,
2013-05-09 19:32:00,73.2,63.6,30.03,SW,226,0.0,1.0,72,0.00,,---,0.00,VWS V14.01,2013-05-09 23:32:00,
2013-05-09 19:37:00,72.7,63.9,30.03,SW,226,0.0,0.0,74,0.00,,---,0.00,VWS V14.01,2013-05-09 23:37:00,
2013-05-09 19:42:00,72.3,63.6,30.03,SW,226,0.0,0.0,74,0.00,,---,0.00,VWS V14.01,2013-05-09 23:42:00,
2013-05-09 19:47:00,71.9,63.9,30.03,SW,226,0.0,0.0,76,0.00,,---,0.00,VWS V14.01,2013-05-09 23:47:00,
2013-05-09 19:52:00,71.5,63.9,30.03,SW,226,0.0,1.0,77,0.00,,---,0.00,VWS V14.01,2013-05-09 23:52:00,
2013-05-09 19:57:00,71.1,63.9,30.03,SW,226,0.0,1.0,78,0.00,,---,0.00,VWS V14.01,2013-05-09 23:57:00,
2013-05-09 20:02:00,70.7,63.9,30.03,SW,226,0.0,1.0,79,0.00,,---,0.00,VWS V14.01,2013-05-10 00:02:00,
2013-05-09 20:07:00,70.3,63.5,30.03,SW,226,0.0,0.0,79,0.00,,---,0.00,VWS V14.01,2013-05-10 00:07:00,
2013-05-09 20:12:00,70.0,63.2,30.03,SW,226,0.0,1.0,79,0.00,,---,0.00,VWS V14.01,2013-05-10 00:12:00,
2013-05-09 20:17:00,69.6,63.9,30.03,SW,226,0.0,1.0,82,0.00,,---,0.00,VWS V14.01,2013-05-10 00:17:00,
2013-05-09 20:22:00,69.3,63.2,30.04,SW,226,0.0,1.0,81,0.00,,---,0.00,VWS V14.01,2013-05-10 00:22:00,
2013-05-09 20:27:00,69.1,63.7,30.04,SW,226,0.0,1.0,83,0.00,,---,0.00,VWS V14.01,2013-05-10 00:27:00,
2013-05-09 20:32:00,68.9,63.5,30.04,SW,226,0.0,1.0,83,0.00,,---,0.00,VWS V14.01,2013-05-10 00:32:00,
2013-05-09 20:37:00,68.6,62.5,30.04,SW,226,0.0,0.0,81,0.00,,---,0.00,VWS V14.01,2013-05-10 00:37:00,
2013-05-09 20:42:00,68.3,62.9,30.04,SW,226,0.0,0.0,83,0.00,,---,0.00,VWS V14.01,2013-05-10 00:42:00,
2013-05-09 20:47:00,68.0,62.7,30.05,SW,226,0.0,0.0,83,0.00,,---,0.00,VWS V14.01,2013-05-10 00:47:00,
2013-05-09 20:52:00,67.7,62.4,30.05,SW,226,0.0,0.0,83,0.00,,---,0.00,VWS V14.01,2013-05-10 00:52:00,
2013-05-09 20:57:00,67.4,62.1,30.05,SW,226,0.0,0.0,83,0.00,,---,0.00,VWS V14.01,2013-05-10 00:57:00,
2013-05-09 21:02:00,67.1,61.8,30.05,SW,226,0.0,0.0,83,0.00,,---,0.00,VWS V14.01,2013-05-10 01:02:00,
2013-05-09 21:07:00,66.8,61.8,30.04,SW,226,0.0,0.0,84,0.00,,---,0.00,VWS V14.01,2013-05-10 01:07:00,
2013-05-09 21:12:00,66.5,61.5,30.05,SW,226,0.0,0.0,84,0.00,,---,0.00,VWS V14.01,2013-05-10 01:12:00,
2013-05-09 21:17:00,66.3,61.3,30.05,SW,226,0.0,0.0,84,0.00,,---,0.00,VWS V14.01,2013-05-10 01:17:00,
2013-05-09 21:22:00,66.1,61.5,30.05,SW,226,0.0,0.0,85,0.00,,---,0.00,VWS V14.01,2013-05-10 01:22:00,
2013-05-09 21:27:00,65.9,60.9,30.05,SW,226,0.0,0.0,84,0.00,,---,0.00,VWS V14.01,2013-05-10 01:27:00,
2013-05-09 21:32:00,65.7,60.4,30.05,SW,226,0.0,1.0,83,0.00,,---,0.00,VWS V14.01,2013-05-10 01:32:00,
2013-05-09 21:37:00,65.7,61.1,30.06,SW,226,1.0,1.0,85,0.00,,---,0.00,VWS V14.01,2013-05-10 01:37:00,
2013-05-09 21:42:00,65.7,61.1,30.06,SW,226,0.0,1.0,85,0.00,,---,0.00,VWS V14.01,2013-05-10 01:42:00,
2013-05-09 21:47:00,65.7,61.1,30.06,SW,226,0.0,1.0,85,0.00,,---,0.00,VWS V14.01,2013-05-10 01:47:00,
2013-05-09 21:52:00,65.5,60.9,30.06,SW,226,0.0,1.0,85,0.00,,---,0.00,VWS V14.01,2013-05-10 01:52:00,
2013-05-09 21:57:00,65.4,60.5,30.06,SW,226,0.0,1.0,84,0.00,,---,0.00,VWS V14.01,2013-05-10 01:57:00,
2013-05-09 22:02:00,65.2,60.6,30.06,SW,226,0.0,1.0,85,0.00,,---,0.00,VWS V14.01,2013-05-10 02:02:00,
2013-05-09 22:07:00,65.1,60.5,30.06,SW,226,0.0,0.0,85,0.00,,---,0.00,VWS V14.01,2013-05-10 02:07:00,
2013-05-09 22:12:00,64.8,60.2,30.07,SW,226,0.0,0.0,85,0.00,,---,0.00,VWS V14.01,2013-05-10 02:12:00,
2013-05-09 22:17:00,64.6,60.0,30.07,SW,226,0.0,1.0,85,0.00,,---,0.00,VWS V14.01,2013-05-10 02:17:00,
2013-05-09 22:22:00,64.4,60.1,30.08,SW,226,0.0,1.0,86,0.00,,---,0.00,VWS V14.01,2013-05-10 02:22:00,
2013-05-09 22:27:00,64.2,60.3,30.08,SW,226,0.0,1.0,87,0.00,,---,0.00,VWS V14.01,2013-05-10 02:27:00,
2013-05-09 22:32:00,64.1,60.2,30.08,SW,226,0.0,1.0,87,0.00,,---,0.00,VWS V14.01,2013-05-10 02:32:00,
2013-05-09 22:37:00,63.9,60.0,30.08,SW,226,0.0,0.0,87,0.00,,---,0.00,VWS V14.01,2013-05-10 02:37:00,
2013-05-09 22:42:00,63.8,59.9,30.08,SW,226,0.0,0.0,87,0.00,,---,0.00,VWS V14.01,2013-05-10 02:42:00,
2013-05-09 22:47:00,63.7,60.1,30.08,SW,226,0.0,0.0,88,0.00,,---,0.00,VWS V14.01,2013-05-10 02:47:00,
2013-05-09 22:52:00,63.5,59.9,30.08,SW,226,0.0,0.0,88,0.00,,---,0.00,VWS V14.01,2013-05-10 02:52:00,
2013-05-09 22:57:00,63.4,59.8,30.08,SW,226,0.0,0.0,88,0.00,,---,0.00,VWS V14.01,2013-05-10 02:57:00,
2013-05-09 23:02:00,63.4,59.8,30.08,SW,226,0.0,0.0,88,0.00,,---,0.00,VWS V14.01,2013-05-10 03:02:00,
2013-05-09 23:07:00,63.2,59.9,30.08,SW,226,0.0,0.0,89,0.00,,---,0.00,VWS V14.01,2013-05-10 03:07:00,
2013-05-09 23:12:00,63.2,59.9,30.08,SW,226,0.0,1.0,89,0.00,,---,0.00,VWS V14.01,2013-05-10 03:12:00,
2013-05-09 23:17:00,63.1,59.8,30.08,SW,226,0.0,1.0,89,0.00,,---,0.00,VWS V14.01,2013-05-10 03:17:00,
2013-05-09 23:22:00,63.1,59.8,30.08,SW,226,0.0,1.0,89,0.00,,---,0.00,VWS V14.01,2013-05-10 03:22:00,
2013-05-09 23:27:00,63.1,59.8,30.08,SW,226,0.0,1.0,89,0.00,,---,0.00,VWS V14.01,2013-05-10 03:27:00,
2013-05-09 23:32:00,63.0,59.7,30.08,SW,226,0.0,1.0,89,0.00,,---,0.00,VWS V14.01,2013-05-10 03:32:00,
2013-05-09 23:37:00,62.9,59.6,30.08,SW,226,0.0,0.0,89,0.00,,---,0.00,VWS V14.01,2013-05-10 03:37:00,
2013-05-09 23:42:00,62.7,59.7,30.08,SW,226,0.0,0.0,90,0.00,,---,0.00,VWS V14.01,2013-05-10 03:42:00,
2013-05-09 23:47:00,62.6,59.6,30.08,SW,226,0.0,0.0,90,0.00,,---,0.00,VWS V14.01,2013-05-10 03:47:00,
2013-05-09 23:52:00,62.4,59.4,30.08,SW,226,0.0,0.0,90,0.00,,---,0.00,VWS V14.01,2013-05-10 03:52:00,
2013-05-09 23:57:00,62.2,59.2,30.08,SW,226,0.0,0.0,90,0.00,,---,0.00,VWS V14.01,2013-05-10 03:57:00,